Regional Weather Roundup
Issued by NWS Sioux Falls, SD

Home | Current Version | Previous Version | Text Only | Print | Product List | Glossary On
Versions: 1 2 3 4 5 6 7 8 9 10 11 12 13 14 15 16 17 18 19 20 21 22 23 24 25 26 27 28 29 30 31 32 33 34 35 36 37 38 39 40 41 42 43 44 45 46 47 48 49 50
000
ASUS43 KFSD 220110
RWRFSD

WEATHER ROUNDUP FOR SE SOUTH DAKOTA/SW MINNESOTA/NW IOWA
NATIONAL WEATHER SERVICE SIOUX FALLS SD
800 PM CDT FRI JUL 21 2017

NOTE: "FAIR" INDICATES FEW OR NO CLOUDS BELOW 12,000 FEET WITH NO
SIGNIFICANT WEATHER AND OR OBSTRUCTIONS TO VISIBILITY.


SDZ038>040-050-052>070-220200-
SOUTHEAST SOUTH DAKOTA

CITY           SKY/WX    TMP DP  RH WIND       PRES   REMARKS
BROOKINGS      CLEAR     81  72  74 S7        29.78F
CHAMBERLAIN    SUNNY     92  73  53 E10       29.73F HX 101
HURON          SUNNY     86  72  62 S9        29.72F
MADISON        FAIR      79  79 100 S9        29.78F
MITCHELL       SUNNY     85  74  69 SE8       29.74F
SIOUX FALLS    PTCLDY    83  75  77 SE7       29.76F
WINNER         FAIR      94  71  47 E12       29.75F HX 101
YANKTON        CLEAR     83  76  79 E7        29.74F
$$

MNZ071-072-080-081-089-090-097-098-220200-
SOUTHWEST MINNESOTA

CITY           SKY/WX    TMP DP  RH WIND       PRES   REMARKS
FAIRMONT       CLOUDY    76  72  87 SE5       29.78F
JACKSON        CLEAR     77  70  78 CALM      29.79F
LUVERNE        PTCLDY    79  72  78 S3        29.78F
MARSHALL       CLEAR     81  73  76 S8        29.77F
MONTEVIDEO     CLEAR     82  72  69 S3        29.77S
PIPESTONE      CLEAR     81  73  78 SE7       29.78F
REDWOOD FALLS  CLEAR     80  69  69 SE7       29.77F
WINDOM         CLEAR     79  70  73 E3        29.79S
WORTHINGTON    CLEAR     78  73  84 SE6       29.79F
$$

IAZ001>003-012>014-020>022-031-032-NEZ013-014-SDZ071-220200-
NORTHWEST IOWA

CITY           SKY/WX    TMP DP  RH WIND       PRES   REMARKS
CHEROKEE       MOCLDY    80  76  89 SE3       29.77R
DENISON        CLEAR     88  81  79 S5        29.74F HX 105
ESTHERVILLE    CLEAR     76  73  91 SE5       29.76F
ORANGE CITY    CLEAR     82  77  83 SE3       29.77S
SHELDON        CLEAR     81  75  83 SE5       29.76F
SIOUX CITY     CLEAR     88  80  77 E8        29.73R HX 104
SPENCER        CLEAR     79  73  82 E7        29.76F
STORM LAKE     PTCLDY    77  75  94 E8        29.77F
$$

ABBREVIATIONS USED IN REMARKS
   TC - TEMPERATURE IN CELSIUS
  WCI - WIND CHILL INDEX
   HX - HEAT INDEX
  VSB - VISIBILITY




USA.gov is the U.S. government's official web portal to all federal, state and local government web resources and services.